Content
SEND FEEDBACK

Daily
Averages
Monthly
Summary
United States of America

YELLOWSTONE NATIONAL PARK, WYOMING


Home > North America > United States > Wyoming
Elevation: 7938 feet     Latitude: 44 34N     Longitude: 110 24W

WEATHER
 
SELECT A DAY
Number of Records: 295,347;   Date Range: 1/1/95 - 7/29/14
 
SHARE

PRINT THIS DATA

[ ← Previous Day ]
WEATHER ALMANAC - JUNE 12, 2013
[ Next Day → ]
[ °C ]   °F
Weather ElementAverageHighLow
Temperature46.4 °F59 °F (11:56 am)37.9 °F (11:56 pm)
Dewpoint41.5 °F46.9 °F (6:56 pm)37 °F (2:56 am)
Humidity83.9 %100 % (9:56 pm)53 % (11:56 am)
Barometer30.09 in30.20 in (2:56 pm)30.02 in (2:56 am)
Wind Speed2.2 mph9.2 mph (2:56 pm)
Wind Gust21.9 mph (2:56 pm)
Weather ElementAverage
Wind DirectionNNE (31.8 °)

Weather ElementTotal
Precipitation0.10 in
Heating Degree Days16.6 (Base 65)
Averaged from 22 records on June 12, 2013
WEATHER CONDITIONS BREAKOUT
WIND DIRECTION BREAKOUT
WEATHER BY HOUR - JUNE 12, 2013
[ °C ]   °F
Local TimeTemperatureDewpointHumidityBarometerVisibilityWind DirectionWind SpeedGust SpeedPrecipitationEventsConditions
1:56 AM43.0 °F37.9 °F82 %30.03 inCalm
2:56 AM42.1 °F37.0 °F82 %30.02 inCalm
3:56 AM41.0 °F37.0 °F86 %30.03 inVariable3.5 mph
4:56 AM39.9 °F37.0 °F89 %30.03 inCalm
5:56 AM41.0 °F37.0 °F86 %30.06 inCalm
6:56 AM44.1 °F42.1 °F93 %30.07 inCalm
7:56 AM50.0 °F42.1 °F74 %30.04 inCalm
8:56 AM50.0 °F41.0 °F71 %30.05 inCalm
9:56 AM50.0 °F44.1 °F80 %30.08 inCalm0.02 in
10:56 AM53.1 °F45.0 °F74 %30.07 inVariable4.6 mph0.02 in
11:56 AM59.0 °F42.1 °F53 %30.06 inVariable5.8 mph
12:56 PM53.1 °F44.1 °F71 %30.14 inVariable5.8 mph
1:56 PM53.1 °F45.0 °F74 %30.14 inVariable5.8 mph0.01 in
2:56 PM46.9 °F43.0 °F86 %30.20 inWNW (290°)9.2 mph21.9 mph0.02 in
4:56 PM48.0 °F45.0 °F89 %30.17 inCalm0.02 in
5:56 PM46.9 °F45.0 °F93 %30.17 inCalm0.01 in
6:56 PM48.0 °F46.9 °F96 %30.13 inEast (100°)5.8 mph
7:56 PM48.0 °F41.0 °F77 %30.12 inVariable4.6 mph
8:56 PM45.0 °F42.1 °F90 %30.10 inCalm
9:56 PM41.0 °F41.0 °F100 %30.13 inCalm
10:56 PM39.0 °F39.0 °F100 %30.12 inNW (310°)3.5 mph
11:56 PM37.9 °F37.9 °F100 %30.08 inCalm
Hourly data recorded from KP60, located miles away from Yellowstone National Park, Wyoming







STORIES FROM OUR PARTNERS